{"data":{"norad_id":59366,"intl_designator":"2024-060U","name":"STARLINK-31451","alt_names":[],"object_type":"PAYLOAD","status":"ACTIVE","operator":null,"country":"US","launch_date":"2024-03-31","launch_site_code":"AFETR","launch_vehicle":null,"mission":null,"orbit_class":"UNKNOWN","rcs_meters":null,"size_class":null,"mass_kg":null,"dimensions":null,"purposes":["comms"],"wikipedia_slug":null,"has_3d_model":false,"image_url":null,"decayed_at":null,"tle_current":{"epoch":"2026-09-21T23:01:46.607808Z","epoch_age_seconds":36045,"freshness":"FRESH","line1":"1 59366U 24060U   26264.95956722  .00000567  00000+0  30110-4 0  9992","line2":"2 59366  43.0033 231.0955 0000936 275.3934  84.6810 15.27575253140082","mean_motion":15.27575253,"eccentricity":9.36e-5,"inclination_deg":43.0033,"raan_deg":231.0955,"arg_perigee_deg":275.3934,"mean_anomaly_deg":84.681,"bstar":3.011e-5,"rev_number":14008,"period_min":94.26704165127,"perigee_km":482.42110195314,"apogee_km":483.70551865123,"semimajor_km":6861.2003103022,"source":"CELESTRAK","updated_at":"2026-09-22T09:00:48.906642Z"}}}